Home   Weather   Bismarck   Past weeks

Flag for USA Past Weather in Bismarck, North Dakota, USA — Yesterday and Last 2 Weeks

Now
14 °F

Clear.


Feels Like: 14 °F
Forecast: 11 / 26 °F
Wind: No wind

Location: Bismarck Municipal Airport

Current Time: Feb 26, 2017 at 11:02:10 pm

Latest Report: Feb 26, 2017 at 9:52 pm


Visibility: 10 mi

Pressure: 29.96 "Hg (28.03 "Hg at 513m altitude)

Humidity: 87%

Dew Point: 11 °F

Location of BismarckLocation

Past Weather in Bismarck — Graph

°F

Bismarck Temperature Yesterday

Maximum temperature yesterday: 29 °F (at 2:52 pm)
Minimum temperature yesterday: 15 °F (at 1:52 am)
Average temperature yesterday: 24 °F

High & Low Weather Summary for the Past Weeks

 TemperatureHumidityPressure
High53 °F (Feb 21, 1:52 pm)100% (Feb 14, 11:52 pm)30.42 "Hg (Feb 14, 11:52 pm)
Low12 °F (Feb 26, 4:52 am)47% (Feb 16, 2:52 pm)29.41 "Hg (Feb 17, 4:52 am)
Average32 °F80%29.89 "Hg
* Reported Feb 11 9:52 pm — Feb 26 9:52 pm, Bismarck, Weather by CustomWeather, © 2017

Note: Actual official high and low records may vary slightly from our data, if they occured in-between our weather recording intervals... More about our weather records

Advertising

Bismarck Weather History for the Previous 24 Hours

Scroll right to see more
 ConditionsComfort  
Time TempWeatherWind HumidityBarometerVisibility
9:52 pm
Sun, Feb 26
14 °FClear.No wind87%29.96 "Hg10 mi
8:52 pm18 °FClear.5 mph80%29.95 "Hg10 mi
8:18 pm19 °FPartly cloudy.3 mph81%29.85 "Hg10 mi
7:52 pm20 °FOvercast.5 mph78%29.94 "Hg10 mi
6:52 pm20 °FOvercast.6 mph78%29.93 "Hg10 mi
5:52 pm20 °FSunny.9 mph78%29.91 "Hg10 mi
4:52 pm21 °FPassing clouds.9 mph78%29.90 "Hg10 mi
4:01 pm22 °FLight snow. Partly sunny.10 mph75%29.79 "Hg10 mi
3:08 pm22 °FMostly cloudy.9 mph78%29.78 "Hg7 mi
3:01 pm23 °FMostly cloudy.8 mph78%29.78 "Hg4 mi
1:52 pm22 °FOvercast.5 mph75%29.87 "Hg6 mi
1:38 pm21 °FLight snow. More clouds than sun.3 mph74%29.79 "Hg4 mi
12:52 pm20 °FMostly cloudy.5 mph74%29.88 "Hg10 mi
12:14 pm19 °FMostly cloudy.5 mph71%29.80 "Hg9 mi
11:52 am18 °FMore clouds than sun.5 mph77%29.88 "Hg10 mi
10:52 am18 °FOvercast.5 mph74%29.87 "Hg6 mi
9:52 am16 °FMostly cloudy.6 mph80%29.87 "Hg6 mi
8:52 am14 °FMostly cloudy.6 mph80%29.87 "Hg10 mi
7:52 am13 °FOvercast.5 mph84%29.87 "Hg10 mi
6:52 am13 °FOvercast.No wind84%29.87 "Hg10 mi
5:52 am14 °FOvercast.3 mph77%29.85 "Hg10 mi
4:52 am12 °FClear.3 mph80%29.84 "Hg10 mi
3:52 am14 °FClear.8 mph80%29.83 "Hg10 mi
2:52 am16 °FClear.8 mph80%29.82 "Hg10 mi
1:52 am17 °FClear.9 mph80%29.80 "Hg10 mi
12:52 am19 °FClear.9 mph81%29.78 "Hg10 mi
12:31 am20 °FPassing clouds.13 mph85%29.70 "Hg10 mi
11:52 pm
Sat, Feb 25
25 °FMostly cloudy.17 mph81%29.75 "Hg10 mi
11:38 pm28 °FMostly cloudy.14 mph85%29.68 "Hg10 mi
11:03 pm28 °FMostly cloudy.12 mph89%29.67 "Hg10 mi
Weather by CustomWeather, © 2017

See weather overviewHow to use our weather pages